Flag for United Kingdom

Past Weather in Oxford, England, United Kingdom — Yesterday and Last 2 Weeks

Now
57 °F

Partly cloudy.


Feels Like: 57 °F
Forecast: 63 / 53 °F
Wind: 2 mph from North

Location: Benson

Current Time: Jul 15, 2020 at 12:51:23 am

Latest Report: Jul 14, 2020 at 11:50 pm


Visibility: N/A

Pressure: 30.01 "Hg

Humidity: 77%

Dew Point: 50 °F

Location of OxfordLocation

Past Weather in Oxford — Graph

°F

Oxford Temperature Yesterday

Maximum temperature yesterday: 68 °F (at 3:50 pm)
Minimum temperature yesterday: 59 °F (at 1:50 am)
Average temperature yesterday: 62 °F

High & Low Weather Summary for the Past Weeks

 TemperatureHumidityPressure
High73 °F (Jul 12, 3:50 pm)100% (Jul 4, 3:50 am)30.39 "Hg (Jul 4, 3:50 am)
Low41 °F (Jul 11, 2:50 am)33% (Jul 12, 5:50 pm)29.62 "Hg (Jul 1, 4:50 am)
Average60 °F77%29.96 "Hg
* Reported Jun 29 10:21 pm — Jul 14 10:50 pm, Oxford. Weather by CustomWeather, © 2020

Note: Actual official high and low records may vary slightly from our data, if they occured in-between our weather recording intervals... More about our weather records

Oxford Weather History for the Previous 24 Hours

Scroll right to see more
 ConditionsComfort  
Time TempWeatherWind HumidityBarometerVisibility
10:50 pm
Tue, Jul 14
59 °FPassing clouds.3 mph72%30.01 "HgN/A
9:50 pm61 °FPartly cloudy.5 mph68%30.01 "HgN/A
8:50 pm61 °FPartly sunny.2 mph68%29.98 "HgN/A
7:50 pm63 °FPartly sunny.6 mph64%29.98 "HgN/A
6:50 pm63 °FBroken clouds.9 mph64%29.98 "HgN/A
5:50 pm64 °FBroken clouds.12 mph64%29.98 "HgN/A
4:50 pm66 °FBroken clouds.9 mph60%29.98 "HgN/A
3:50 pm68 °FBroken clouds.9 mph60%29.98 "HgN/A
2:50 pm66 °FBroken clouds.8 mph64%30.01 "HgN/A
1:50 pm64 °FBroken clouds.5 mph68%30.01 "HgN/A
12:50 pm64 °FBroken clouds.6 mph68%30.01 "HgN/A
11:50 am64 °FBroken clouds.3 mph73%30.04 "HgN/A
10:50 am63 °FBroken clouds.6 mph77%30.04 "HgN/A
9:50 am63 °FBroken clouds.6 mph77%30.04 "HgN/A
8:50 am61 °FBroken clouds.7 mph88%30.04 "HgN/A
7:50 am61 °FPartly sunny.5 mph88%30.04 "HgN/A
6:50 am59 °FOvercast.5 mph100%30.04 "HgN/A
5:50 am59 °FOvercast.5 mph100%30.04 "Hg5 mi
4:50 am59 °FPassing clouds.3 mph100%30.01 "Hg4 mi
3:50 am59 °FPartly cloudy.2 mph100%30.04 "HgN/A
2:50 am59 °FPassing clouds.5 mph100%30.04 "Hg1 mi
1:50 am59 °FLow clouds.3 mph100%30.04 "Hg1 mi
12:35 am61 °FMostly cloudy.6 mph94%30.07 "HgN/A
Weather by CustomWeather, © 2020

See weather overview